This is the latest recevied weather packets stored in our database for station/object DJ2DS-13. If no packets are shown the sender has not sent any weather packets the latest 10 day(s).
| Time | Temp. | Humidity | Pressure | Rain* | Wind** | Luminosity | Snow |
|---|---|---|---|---|---|---|---|
| 1778007689 | 9.44° C | 84% | 1009.4 hPa | 0 mm | - | 0 W/m² | - |
| 1778007388 | 10° C | 84% | 1009.5 hPa | 0 mm | - | 5 W/m² | - |
| 1778007088 | 10° C | 85% | 1009.3 hPa | 0 mm | - | 7 W/m² | - |
| 1778006787 | 10° C | 85% | 1009.3 hPa | 0 mm | - | 9 W/m² | - |
| 1778006487 | 10° C | 85% | 1009.2 hPa | 0 mm | - | 12 W/m² | - |
| 1778006183 | 10° C | 85% | 1009.3 hPa | 0 mm | - | 12 W/m² | - |
| 1778005883 | 10° C | 85% | 1009.3 hPa | 0 mm | - | 14 W/m² | - |
| 1778005585 | 10° C | 85% | 1009.3 hPa | 0 mm | - | 18 W/m² | - |
| 1778005282 | 10° C | 85% | 1009.3 hPa | 0 mm | - | 21 W/m² | - |
| 1778004982 | 10° C | 84% | 1009.4 hPa | 0 mm | - | 25 W/m² | - |
| 1778004682 | 10° C | 84% | 1009.3 hPa | 0 mm | - | 23 W/m² | - |
| 1778004380 | 10° C | 84% | 1009.3 hPa | 0 mm | - | 25 W/m² | - |
| 1778004079 | 10° C | 84% | 1009.4 hPa | 0 mm | - | 26 W/m² | - |
| 1778003781 | 10° C | 83% | 1009.3 hPa | 0 mm | - | 26 W/m² | - |
| 1778003477 | 10° C | 84% | 1009.4 hPa | 0 mm | - | 26 W/m² | - |
| 1778003177 | 10° C | 83% | 1009.4 hPa | 0 mm | - | 28 W/m² | - |
| 1778002577 | 10.56° C | 84% | 1009.4 hPa | 0 mm | - | 30 W/m² | - |
| 1778002276 | 10° C | 83% | 1009.4 hPa | 0 mm | - | 32 W/m² | - |
| 1778001977 | 10.56° C | 83% | 1009.4 hPa | 0 mm | - | 39 W/m² | - |
| 1778001675 | 10.56° C | 83% | 1009.5 hPa | 0 mm | - | 46 W/m² | - |
| 1778001375 | 10.56° C | 83% | 1009.5 hPa | 0 mm | - | 48 W/m² | - |
| 1778001074 | 10.56° C | 83% | 1009.6 hPa | 0 mm | - | 48 W/m² | - |
| 1778000771 | 10.56° C | 83% | 1009.6 hPa | 0 mm | - | 49 W/m² | - |
| 1778000472 | 10.56° C | 83% | 1009.6 hPa | 0 mm | - | 53 W/m² | - |
| 1778000170 | 10.56° C | 83% | 1009.6 hPa | 0 mm | - | 51 W/m² | - |
* Rain latest hour (hover to see other rain measurements)
** Current wind speed in m/s (hover to see current wind gust speed)